SCP
0 -0 -0 0 -0 0 0 0 0 0 0 0 0 0 0 0 0 0 0 0 -0 -0 0 -0 -0 -0 -0 -0 -0 -0 -0 -0 0 0 0 0 -0 -0 -0 0 0 -0 0
-0 0 -0 0 0 0 0 0 0 0 0 0 0 0 0 0 0 0 -0 -0 -0 -0 -0 -0 -0 -0 -0 -0 -0 0 0 0 0 0 0 0 0 -0 0 0 0 -0 -0
-0 -0 0 0 0 0 0 0 0 0 0 0 0 0 0 0 0 0 -0 -0 -0 -0 0 -0 -0 -0 -0 -0 -0 0 -0 0 0 0 0 0 -0 0 0 -0 0 -0 0
0 0 0 0 0 0 0 -0 -0 0 -0 0 0 0 0 0 0 -0 -0 0 -0 -0 -0 -0 -0 -0 -0 -0 0 -0 0 0 0 0 0 0 -0 -0 0 -0 0 0 -0
-0 -0 -0 0 -0 -0 -0 0 0 0 0 0 0 0 0 0 0 -0 0 -0 -0 -0 -0 -0 -0 -0 0 0 0 0 0 0 -0 -0 0 0 0 -0 -0 -0 -0 0 0
0 0 0 -0 0 0 0 0 0 0 0 0 -0 0 0 0 0 -0 -0 -0 -0 -0 -0 -0 0 0 0 0 -0 -0 -0 -0 -0 -0 -0 -0 0 -0 -0 -0 -0 -0 -0
0 0 0 0 0 0 0 0 0 0 0 -0 0 0 0 0 0 -0 -0 -0 -0 -0 -0 0 0 -0 -0 -0 -0 0 -0 -0 0 -0 -0 0 -0 -0 0 -0 -0 -0 0
0 0 0 0 -0 0 -0 0 0 0 0 0 0 0 0 0 -0 -0 -0 -0 -0 0 0 0 -0 -0 -0 -0 -0 0 -0 -0 -0 -0 0 -0 -0 -0 0 0 0 0 -0
0 0 0 0 -0 -0 -0 -0 -0 -0 0 0 0 0 0 0 -0 -0 0 0 0 0 0 0 -0 -0 -0 -0 -0 -0 0 0 -0 -0 0 0 -0 -0 -0 0 0 -0 -0
0 0 0 -0 0 0 -0 -0 -0 -0 0 0 -0 -0 0 0 -0 0 0 0 0 0 0 0 0 0 0 0 0 0 0 -0 0 0 0 0 -0 -0 0 -0 -0 -0 -0
-0 -0 0 0 -0 -0 -0 -0 -0 -0 -0 -0 -0 0 0 0 -0 0 -0 -0 0 0 0 0 0 0 0 -0 0 -0 -0 0 -0 0 0 -0 0 0 0 -0 -0 -0 -0
0 0 -0 -0 -0 -0 -0 -0 0 -0 -0 -0 -0 -0 0 -0 -0 0 0 0 0 0 0 0 0 0 -0 0 0 -0 0 0 0 0 0 -0 -0 -0 0 0 0 -0 -0
-0 0 -0 -0 -0 0 -0 -0 -0 -0 -0 -0 -0 -0 -0 -0 -0 -0 0 0 0 0 0 0 0 0 -0 0 0 -0 -0 0 0 0 -0 0 0 -0 -0 0 0 0 -0
-0 -0 -0 -0 0 -0 -0 -0 -0 -0 -0 -0 0 -0 -0 -0 -0 -0 -0 -0 -0 -0 -0 0 -0 -0 0 0 0 -0 0 -0 -0 -0 0 -0 0 -0 -0 0 0 0 -0
-0 -0 -0 -0 -0 -0 -0 -0 -0 -0 -0 -0 -0 0 0 -0 -0 -0 -0 -0 -0 -0 -0 -0 -0 -0 -0 -0 -0 -0 -0 -0 -0 -0 -0 -0 0 0 -0 -0 -0 0 0
-0 -0 -0 -0 -0 -0 -0 -0 -0 -0 -0 -0 0 0 0 0 -0 -0 -0 -0 -0 0 0 0 -0 -0 -0 -0 0 0 -0 -0 -0 -0 -0 -0 0 0 -0 -0 0 0 0
-0 -0 -0 -0 -0 -0 -0 0 0 0 0 -0 -0 0 0 0 0 0 0 0 -0 -0 0 0 -0 -0 -0 -0 0 0 0 0 -0 -0 -0 -0 -0 0 0 0 0 0 0
-0 -0 -0 -0 -0 -0 -0 0 0 0 0 -0 -0 -0 0 0 0 0 0 0 -0 0 0 0 -0 0 0 0 0 0 0 0 0 0 0 -0 -0 -0 0 0 0 0 0
-0 0 -0 -0 -0 -0 -0 0 -0 0 0 0 0 -0 0 0 0 0 0 -0 0 0 0 -0 0 0 0 0 0 0 0 0 0 0 0 -0 -0 -0 -0 -0 -0 -0 -0
-0 -0 -0 0 -0 -0 0 -0 0 0 0 0 0 0 0 0 -0 -0 0 0 0 0 0 0 0 0 0 0 0 0 0 0 0 0 0 0 0 0 0 0 0 0 0
-0 -0 -0 -0 -0 -0 -0 -0 0 0 0 0 0 0 0 -0 -0 0 0 0 0 0 0 0 0 0 0 0 0 0 0 0 0 0 0 0 0 0 0 0 0 0 0
-0 -0 -0 -0 -0 -0 -0 -0 -0 -0 -0 -0 -0 -0 0 0 0 0 0 0 0 0 0 0 0 0 0 0 0 0 0 0 0 0 0 0 0 0 0 0 0 0 0
-0 -0 -0 -0 -0 -0 0 -0 -0 -0 -0 -0 -0 -0 -0 -0 -0 -0 -0 0 0 0 0 0 0 0 0 0 0 0 0 0 0 0 0 0 0 0 0 0 0 0 0
-0 -0 -0 0 0 0 0 -0 -0 -0 -0 -0 -0 -0 -0 -0 -0 -0 -0 0 -0 0 0 0 0 0 0 0 0 0 0 0 0 0 0 0 0 0 0 0 0 0 0
-0 -0 0 0 0 0 0 -0 -0 -0 -0 -0 -0 -0 -0 -0 -0 -0 0 0 0 0 0 0 0 0 0 0 0 0 0 0 0 0 0 0 0 0 0 0 0 0 0
-0 0 -0 -0 -0 -0 -0 -0 -0 -0 -0 -0 -0 -0 -0 0 0 0 0 0 0 0 0 0 0 0 0 0 0 0 0 0 0 0 0 0 0 0 0 0 0 0 0
Wind_Speed_500mb
36 50 57 64 65 60 56 55 53 51 50 50 47 46 40 35 31 28 24 23 23 21 20 23 22 23 22 22 19 16 16 15 16 17 19 15 12 12 10 13 22 6 14
40 54 57 59 57 53 48 49 49 46 46 48 45 42 34 30 27 23 20 21 20 20 19 20 21 21 21 20 19 16 15 13 13 14 20 27 14 9 12 17 26 13 19
42 46 42 45 45 44 42 45 46 42 42 44 42 38 31 27 23 21 19 18 17 16 15 17 18 19 19 18 16 15 15 12 8 13 23 15 6 9 12 15 19 20 23
37 34 30 37 36 38 42 42 42 39 40 40 38 32 27 22 18 17 16 14 14 13 14 14 15 17 17 17 16 14 14 10 8 12 15 11 6 8 14 17 18 18 17
34 28 35 34 34 36 37 37 36 38 38 38 33 26 21 18 16 14 12 10 11 10 10 12 16 17 16 16 14 13 12 13 11 10 10 9 12 7 15 13 14 16 25
29 23 33 31 33 34 35 36 38 38 36 33 27 24 22 19 15 11 8 7 8 9 11 14 17 17 15 14 13 10 12 11 11 9 12 9 10 5 13 12 14 16 19
31 26 31 31 31 34 36 38 40 36 32 30 27 25 20 15 11 8 4 5 8 8 12 16 16 15 13 13 15 14 10 9 9 9 9 7 4 8 9 13 17 14 16
33 31 30 33 32 32 34 39 38 31 28 26 22 17 14 10 8 4 2 7 8 8 12 13 13 14 10 11 12 15 14 13 9 6 6 6 3 9 10 11 13 14 15
30 33 31 28 31 33 34 35 34 24 24 21 15 14 13 9 3 1 5 7 7 9 12 12 10 11 12 9 9 11 12 14 11 4 1 6 4 6 7 4 11 13 14
32 27 28 28 27 28 31 34 32 25 21 18 16 15 11 7 4 4 5 8 7 9 9 8 8 8 9 7 10 10 10 19 10 7 1 4 2 2 5 6 10 14 16
33 31 29 28 29 28 24 26 26 22 20 19 17 13 8 3 7 6 12 8 10 7 7 9 5 10 10 15 12 12 17 10 6 8 5 11 5 5 3 7 9 14 15
33 31 33 30 29 28 24 23 19 17 15 15 14 14 10 12 11 9 10 6 8 7 8 9 6 9 16 6 12 19 13 10 8 8 9 14 9 7 7 7 9 13 18
36 34 35 35 32 30 26 22 19 18 18 17 20 16 14 12 11 10 6 6 7 15 7 10 7 6 9 6 12 9 11 11 8 11 16 18 13 9 9 15 7 15 14
39 36 35 34 34 32 26 24 22 22 20 17 16 19 17 13 13 15 8 13 11 7 11 10 11 15 9 15 14 15 14 10 10 9 15 23 14 12 10 8 18 10 16
38 37 36 36 35 34 33 26 25 24 21 19 19 19 19 17 18 14 15 15 15 15 14 12 12 15 16 15 16 15 11 14 12 9 9 27 17 15 16 13 11 20 15
38 38 37 38 37 35 34 32 27 24 23 22 21 21 24 21 22 19 17 19 17 19 15 14 15 15 17 16 16 16 14 14 16 18 14 17 23 20 19 21 18 16 21
42 39 39 37 36 36 35 31 28 25 25 24 22 26 25 25 23 22 23 18 20 20 20 17 17 14 14 16 19 18 18 20 19 20 19 16 17 24 22 22 21 20 21
41 42 40 36 37 37 35 32 30 26 25 29 24 27 26 27 27 22 21 21 21 21 23 16 14 16 17 17 21 21 20 18 17 16 12 12 13 15 25 22 23 21 22
42 41 41 40 38 37 35 32 32 32 29 25 23 31 24 20 22 21 21 21 22 21 15 12 13 14 17 17 16 16 14 13 11 8 7 8 10 10 15 25 26 22 20
39 40 39 39 38 36 35 34 29 27 27 27 27 22 25 23 23 23 20 21 18 15 11 12 15 17 16 14 12 13 10 4 4 5 4 5 2 1 4 12 15 15 20
44 41 41 42 40 37 31 29 29 29 26 29 28 27 26 24 24 22 18 18 13 11 12 15 15 15 6 12 9 7 5 2 5 5 3 3 5 4 4 3 5 9 13
50 46 43 45 44 43 35 32 29 25 24 25 25 26 21 19 19 17 18 13 18 13 15 10 8 7 9 8 5 6 4 5 4 1 1 5 4 3 3 4 3 6 8
54 51 49 48 48 46 45 36 31 28 26 22 21 19 19 18 17 15 14 15 17 12 11 5 7 8 6 7 3 1 5 2 5 4 3 3 6 3 3 5 4 5 8
58 52 51 54 52 51 48 45 40 30 25 20 19 17 16 17 18 17 16 14 14 8 11 6 6 5 2 6 6 3 3 6 7 6 6 4 3 3 8 5 7 8 8
58 56 53 55 57 52 49 51 44 37 29 24 20 20 20 20 20 20 19 18 16 10 11 11 7 6 6 6 7 7 6 5 4 4 8 4 7 4 2 1 2 1 7
61 59 56 57 61 59 58 56 57 42 37 30 29 23 21 21 23 27 27 24 17 14 11 9 11 9 7 10 8 8 7 5 6 8 13 12 12 13 11 10 7 9 8
Wind_Direction_500mb
117 125 126 127 130 129 128 126 125 125 123 125 126 128 127 119 115 109 102 95 88 85 73 68 57 48 44 40 41 41 48 55 51 53 44 43 68 72 58 105 94 127 132
122 129 126 126 126 127 128 131 132 129 129 129 128 130 128 124 115 107 100 92 86 77 68 64 52 41 35 34 37 39 46 53 60 58 47 28 22 62 48 105 130 170 128
128 132 128 128 127 128 126 128 132 134 133 130 135 134 136 127 119 104 94 87 79 71 61 51 42 33 31 31 32 41 42 38 65 62 64 71 28 66 75 102 135 123 125
134 134 137 132 132 131 128 128 135 135 133 133 136 138 138 136 115 97 90 82 72 56 48 41 30 27 24 22 28 36 37 40 51 71 60 64 66 64 90 113 126 126 120
142 148 148 143 143 137 134 132 135 138 136 138 143 141 142 136 120 103 92 84 64 39 36 28 19 17 15 13 24 31 37 37 41 86 71 69 86 52 111 113 105 118 114
147 142 149 148 145 143 142 143 142 140 142 147 148 142 135 130 117 105 100 66 33 31 21 15 12 6 15 11 15 30 24 32 42 96 84 49 96 73 119 112 148 135 140
146 145 144 142 143 150 150 149 142 141 142 144 142 137 134 123 115 114 85 25 20 29 10 6 3 9 19 26 13 6 28 40 38 47 101 78 70 77 106 110 137 137 135
147 147 149 146 148 147 152 153 151 143 144 143 140 145 143 139 131 126 34 3 11 7 356 1 3 16 30 37 43 21 10 45 39 56 122 102 8 87 93 133 130 143 139
155 150 152 151 154 154 158 162 165 162 159 155 157 158 164 155 168 315 5 347 341 347 354 352 3 26 25 41 48 42 17 27 64 8 340 175 54 87 128 139 158 160 151
159 160 154 156 158 156 158 164 171 174 172 179 174 176 172 183 216 303 337 352 337 338 344 342 354 13 18 33 36 41 25 30 20 352 295 243 312 76 154 165 192 183 173
167 164 164 163 164 162 164 173 173 176 181 186 189 188 194 164 258 298 274 309 329 313 328 335 329 352 16 9 2 8 31 349 3 321 347 321 325 236 152 159 192 197 198
174 169 170 173 176 171 171 193 178 189 191 192 200 219 209 230 235 245 277 298 327 339 340 344 333 32 45 350 341 3 356 314 348 318 288 296 305 278 239 194 193 199 198
176 175 180 181 185 182 187 191 198 204 205 214 216 215 224 228 255 262 280 315 305 318 343 328 327 323 298 297 309 325 312 347 312 301 283 290 290 264 252 226 233 205 205
182 182 184 191 190 190 200 199 202 205 208 206 223 226 224 237 256 250 242 268 271 277 268 276 269 269 289 294 299 293 304 292 284 277 283 294 282 255 247 234 233 229 215
187 189 192 194 198 199 201 205 203 208 218 219 225 234 225 235 253 260 261 261 286 287 284 272 286 282 291 298 297 298 298 301 297 292 272 287 267 251 241 246 241 240 240
194 197 198 201 205 205 209 210 214 219 223 227 231 233 245 238 249 252 267 273 282 289 273 271 273 284 284 289 298 294 290 290 292 289 279 279 283 260 246 243 251 248 242
201 200 201 202 206 208 210 214 218 221 225 227 235 239 240 248 256 260 258 265 276 272 278 280 292 301 307 308 304 304 299 298 296 286 279 269 270 290 262 245 246 254 254
201 203 204 205 209 212 213 217 216 225 226 228 231 248 251 259 262 268 267 264 261 276 273 278 304 298 300 297 297 302 294 297 296 296 284 268 260 238 291 285 263 267 254
204 206 207 208 209 212 216 216 222 225 234 242 249 254 254 253 256 250 253 253 268 259 269 287 289 291 296 303 302 304 301 313 316 302 286 282 272 266 231 276 286 261 261
206 207 208 209 209 212 214 217 228 240 235 238 242 255 253 254 249 259 252 261 270 269 292 268 276 285 291 292 299 296 299 322 23 33 35 61 301 260 253 248 263 277 258
208 209 210 210 213 211 213 217 227 232 245 259 252 250 254 253 255 250 254 257 257 255 244 279 291 295 290 297 327 307 292 28 38 103 100 91 42 47 27 36 152 214 280
209 211 214 216 216 218 220 220 222 234 240 244 255 242 250 240 242 239 233 251 251 255 278 271 273 268 298 302 322 317 261 205 200 186 89 43 57 49 6 355 283 245 200
212 214 217 220 220 222 218 227 230 230 235 248 254 260 256 240 236 227 233 212 250 267 267 243 285 279 281 297 318 247 262 347 316 245 280 311 60 60 63 12 45 297 254
213 214 218 224 227 225 226 219 224 224 229 233 235 236 224 215 219 219 213 230 270 223 220 263 284 222 275 290 305 282 205 223 298 217 214 274 4 58 105 82 50 12 9
212 213 217 223 227 224 225 221 225 228 230 224 224 217 205 220 211 210 220 243 257 199 242 246 256 235 253 233 251 257 279 277 262 270 278 241 295 282 279 122 243 264 317
212 214 216 220 227 227 228 229 227 221 217 216 222 220 217 219 220 221 231 240 240 217 240 267 246 257 223 230 229 241 237 251 282 284 288 288 285 271 275 258 279 274 272
Wind_Speed_850mb
36 50 57 64 65 60 56 55 53 51 50 50 47 46 40 35 31 28 24 23 23 21 20 23 22 23 22 22 19 16 16 15 16 17 19 15 12 12 10 13 22 6 14
40 54 57 59 57 53 48 49 49 46 46 48 45 42 34 30 27 23 20 21 20 20 19 20 21 21 21 20 19 16 15 13 13 14 20 27 14 9 12 17 26 13 19
42 46 42 45 45 44 42 45 46 42 42 44 42 38 31 27 23 21 19 18 17 16 15 17 18 19 19 18 16 15 15 12 8 13 23 15 6 9 12 15 19 20 23
37 34 30 37 36 38 42 42 42 39 40 40 38 32 27 22 18 17 16 14 14 13 14 14 15 17 17 17 16 14 14 10 8 12 15 11 6 8 14 17 18 18 17
34 28 35 34 34 36 37 37 36 38 38 38 33 26 21 18 16 14 12 10 11 10 10 12 16 17 16 16 14 13 12 13 11 10 10 9 12 7 15 13 14 16 25
29 23 33 31 33 34 35 36 38 38 36 33 27 24 22 19 15 11 8 7 8 9 11 14 17 17 15 14 13 10 12 11 11 9 12 9 10 5 13 12 14 16 19
31 26 31 31 31 34 36 38 40 36 32 30 27 25 20 15 11 8 4 5 8 8 12 16 16 15 13 13 15 14 10 9 9 9 9 7 4 8 9 13 17 14 16
33 31 30 33 32 32 34 39 38 31 28 26 22 17 14 10 8 4 2 7 8 8 12 13 13 14 10 11 12 15 14 13 9 6 6 6 3 9 10 11 13 14 15
30 33 31 28 31 33 34 35 34 24 24 21 15 14 13 9 3 1 5 7 7 9 12 12 10 11 12 9 9 11 12 14 11 4 1 6 4 6 7 4 11 13 14
32 27 28 28 27 28 31 34 32 25 21 18 16 15 11 7 4 4 5 8 7 9 9 8 8 8 9 7 10 10 10 19 10 7 1 4 2 2 5 6 10 14 16
33 31 29 28 29 28 24 26 26 22 20 19 17 13 8 3 7 6 12 8 10 7 7 9 5 10 10 15 12 12 17 10 6 8 5 11 5 5 3 7 9 14 15
33 31 33 30 29 28 24 23 19 17 15 15 14 14 10 12 11 9 10 6 8 7 8 9 6 9 16 6 12 19 13 10 8 8 9 14 9 7 7 7 9 13 18
36 34 35 35 32 30 26 22 19 18 18 17 20 16 14 12 11 10 6 6 7 15 7 10 7 6 9 6 12 9 11 11 8 11 16 18 13 9 9 15 7 15 14
39 36 35 34 34 32 26 24 22 22 20 17 16 19 17 13 13 15 8 13 11 7 11 10 11 15 9 15 14 15 14 10 10 9 15 23 14 12 10 8 18 10 16
38 37 36 36 35 34 33 26 25 24 21 19 19 19 19 17 18 14 15 15 15 15 14 12 12 15 16 15 16 15 11 14 12 9 9 27 17 15 16 13 11 20 15
38 38 37 38 37 35 34 32 27 24 23 22 21 21 24 21 22 19 17 19 17 19 15 14 15 15 17 16 16 16 14 14 16 18 14 17 23 20 19 21 18 16 21
42 39 39 37 36 36 35 31 28 25 25 24 22 26 25 25 23 22 23 18 20 20 20 17 17 14 14 16 19 18 18 20 19 20 19 16 17 24 22 22 21 20 21
41 42 40 36 37 37 35 32 30 26 25 29 24 27 26 27 27 22 21 21 21 21 23 16 14 16 17 17 21 21 20 18 17 16 12 12 13 15 25 22 23 21 22
42 41 41 40 38 37 35 32 32 32 29 25 23 31 24 20 22 21 21 21 22 21 15 12 13 14 17 17 16 16 14 13 11 8 7 8 10 10 15 25 26 22 20
39 40 39 39 38 36 35 34 29 27 27 27 27 22 25 23 23 23 20 21 18 15 11 12 15 17 16 14 12 13 10 4 4 5 4 5 2 1 4 12 15 15 20
44 41 41 42 40 37 31 29 29 29 26 29 28 27 26 24 24 22 18 18 13 11 12 15 15 15 6 12 9 7 5 2 5 5 3 3 5 4 4 3 5 9 13
50 46 43 45 44 43 35 32 29 25 24 25 25 26 21 19 19 17 18 13 18 13 15 10 8 7 9 8 5 6 4 5 4 1 1 5 4 3 3 4 3 6 8
54 51 49 48 48 46 45 36 31 28 26 22 21 19 19 18 17 15 14 15 17 12 11 5 7 8 6 7 3 1 5 2 5 4 3 3 6 3 3 5 4 5 8
58 52 51 54 52 51 48 45 40 30 25 20 19 17 16 17 18 17 16 14 14 8 11 6 6 5 2 6 6 3 3 6 7 6 6 4 3 3 8 5 7 8 8
58 56 53 55 57 52 49 51 44 37 29 24 20 20 20 20 20 20 19 18 16 10 11 11 7 6 6 6 7 7 6 5 4 4 8 4 7 4 2 1 2 1 7
61 59 56 57 61 59 58 56 57 42 37 30 29 23 21 21 23 27 27 24 17 14 11 9 11 9 7 10 8 8 7 5 6 8 13 12 12 13 11 10 7 9 8
Wind_Direction_850mb
117 125 126 127 130 129 128 126 125 125 123 125 126 128 127 119 115 109 102 95 88 85 73 68 57 48 44 40 41 41 48 55 51 53 44 43 68 72 58 105 94 127 132
122 129 126 126 126 127 128 131 132 129 129 129 128 130 128 124 115 107 100 92 86 77 68 64 52 41 35 34 37 39 46 53 60 58 47 28 22 62 48 105 130 170 128
128 132 128 128 127 128 126 128 132 134 133 130 135 134 136 127 119 104 94 87 79 71 61 51 42 33 31 31 32 41 42 38 65 62 64 71 28 66 75 102 135 123 125
134 134 137 132 132 131 128 128 135 135 133 133 136 138 138 136 115 97 90 82 72 56 48 41 30 27 24 22 28 36 37 40 51 71 60 64 66 64 90 113 126 126 120
142 148 148 143 143 137 134 132 135 138 136 138 143 141 142 136 120 103 92 84 64 39 36 28 19 17 15 13 24 31 37 37 41 86 71 69 86 52 111 113 105 118 114
147 142 149 148 145 143 142 143 142 140 142 147 148 142 135 130 117 105 100 66 33 31 21 15 12 6 15 11 15 30 24 32 42 96 84 49 96 73 119 112 148 135 140
146 145 144 142 143 150 150 149 142 141 142 144 142 137 134 123 115 114 85 25 20 29 10 6 3 9 19 26 13 6 28 40 38 47 101 78 70 77 106 110 137 137 135
147 147 149 146 148 147 152 153 151 143 144 143 140 145 143 139 131 126 34 3 11 7 356 1 3 16 30 37 43 21 10 45 39 56 122 102 8 87 93 133 130 143 139
155 150 152 151 154 154 158 162 165 162 159 155 157 158 164 155 168 315 5 347 341 347 354 352 3 26 25 41 48 42 17 27 64 8 340 175 54 87 128 139 158 160 151
159 160 154 156 158 156 158 164 171 174 172 179 174 176 172 183 216 303 337 352 337 338 344 342 354 13 18 33 36 41 25 30 20 352 295 243 312 76 154 165 192 183 173
167 164 164 163 164 162 164 173 173 176 181 186 189 188 194 164 258 298 274 309 329 313 328 335 329 352 16 9 2 8 31 349 3 321 347 321 325 236 152 159 192 197 198
174 169 170 173 176 171 171 193 178 189 191 192 200 219 209 230 235 245 277 298 327 339 340 344 333 32 45 350 341 3 356 314 348 318 288 296 305 278 239 194 193 199 198
176 175 180 181 185 182 187 191 198 204 205 214 216 215 224 228 255 262 280 315 305 318 343 328 327 323 298 297 309 325 312 347 312 301 283 290 290 264 252 226 233 205 205
182 182 184 191 190 190 200 199 202 205 208 206 223 226 224 237 256 250 242 268 271 277 268 276 269 269 289 294 299 293 304 292 284 277 283 294 282 255 247 234 233 229 215
187 189 192 194 198 199 201 205 203 208 218 219 225 234 225 235 253 260 261 261 286 287 284 272 286 282 291 298 297 298 298 301 297 292 272 287 267 251 241 246 241 240 240
194 197 198 201 205 205 209 210 214 219 223 227 231 233 245 238 249 252 267 273 282 289 273 271 273 284 284 289 298 294 290 290 292 289 279 279 283 260 246 243 251 248 242
201 200 201 202 206 208 210 214 218 221 225 227 235 239 240 248 256 260 258 265 276 272 278 280 292 301 307 308 304 304 299 298 296 286 279 269 270 290 262 245 246 254 254
201 203 204 205 209 212 213 217 216 225 226 228 231 248 251 259 262 268 267 264 261 276 273 278 304 298 300 297 297 302 294 297 296 296 284 268 260 238 291 285 263 267 254
204 206 207 208 209 212 216 216 222 225 234 242 249 254 254 253 256 250 253 253 268 259 269 287 289 291 296 303 302 304 301 313 316 302 286 282 272 266 231 276 286 261 261
206 207 208 209 209 212 214 217 228 240 235 238 242 255 253 254 249 259 252 261 270 269 292 268 276 285 291 292 299 296 299 322 23 33 35 61 301 260 253 248 263 277 258
208 209 210 210 213 211 213 217 227 232 245 259 252 250 254 253 255 250 254 257 257 255 244 279 291 295 290 297 327 307 292 28 38 103 100 91 42 47 27 36 152 214 280
209 211 214 216 216 218 220 220 222 234 240 244 255 242 250 240 242 239 233 251 251 255 278 271 273 268 298 302 322 317 261 205 200 186 89 43 57 49 6 355 283 245 200
212 214 217 220 220 222 218 227 230 230 235 248 254 260 256 240 236 227 233 212 250 267 267 243 285 279 281 297 318 247 262 347 316 245 280 311 60 60 63 12 45 297 254
213 214 218 224 227 225 226 219 224 224 229 233 235 236 224 215 219 219 213 230 270 223 220 263 284 222 275 290 305 282 205 223 298 217 214 274 4 58 105 82 50 12 9
212 213 217 223 227 224 225 221 225 228 230 224 224 217 205 220 211 210 220 243 257 199 242 246 256 235 253 233 251 257 279 277 262 270 278 241 295 282 279 122 243 264 317
212 214 216 220 227 227 228 229 227 221 217 216 222 220 217 219 220 221 231 240 240 217 240 267 246 257 223 230 229 241 237 251 282 284 288 288 285 271 275 258 279 274 272